Time,TemperatureF,DewpointF,PressureIn,WindDirection,WindDirectionDegrees,WindSpeedMPH,WindSpeedGustMPH,Humidity,HourlyPrecipIn,Conditions,Clouds,dailyrainin,SolarRadiationWatts/m^2,SoftwareType,DateUTC
2013-09-24 00:00:00,49.6,48.5,29.95,N/A,-737280,0.0,-999.0,96,0.00,,,0.29,0,Wunderground v.1.15,2013-09-24 07:00:00,
2013-09-24 00:04:00,49.6,49.0,29.95,NW,306,0.0,0.0,96,0.00,,,0.00,0,weatherlink.com 1.10,2013-09-24 07:04:00,
2013-09-24 00:05:00,49.6,48.5,29.95,N/A,-737280,0.0,-999.0,96,0.00,,,0.29,0,Wunderground v.1.15,2013-09-24 07:05:00,
2013-09-24 00:10:00,49.6,48.5,29.95,N/A,-737280,0.0,-999.0,96,0.00,,,0.29,0,Wunderground v.1.15,2013-09-24 07:10:00,
2013-09-24 00:15:00,49.6,48.5,29.95,N/A,-737280,0.0,-999.0,96,0.00,,,0.29,0,Wunderground v.1.15,2013-09-24 07:15:00,
2013-09-24 00:19:00,49.7,49.0,29.95,NW,306,0.0,0.0,96,0.00,,,0.00,0,weatherlink.com 1.10,2013-09-24 07:19:00,
2013-09-24 00:20:00,49.6,48.5,29.95,N/A,-737280,0.0,-999.0,96,0.00,,,0.29,0,Wunderground v.1.15,2013-09-24 07:20:00,
2013-09-24 00:25:00,49.7,48.6,29.95,N/A,-737280,0.0,-999.0,96,0.00,,,0.29,0,Wunderground v.1.15,2013-09-24 07:25:00,
2013-09-24 00:30:00,49.7,48.6,29.95,N/A,-737280,0.0,-999.0,96,0.00,,,0.29,0,Wunderground v.1.15,2013-09-24 07:30:00,
2013-09-24 00:34:00,49.6,49.0,29.95,NW,306,0.0,0.0,96,0.00,,,0.00,0,weatherlink.com 1.10,2013-09-24 07:34:00,
2013-09-24 00:35:00,49.7,48.6,29.95,N/A,-737280,0.0,-999.0,96,0.00,,,0.29,0,Wunderground v.1.15,2013-09-24 07:35:00,
2013-09-24 00:40:00,49.6,48.5,29.95,N/A,-737280,0.0,-999.0,96,0.00,,,0.29,0,Wunderground v.1.15,2013-09-24 07:40:00,
2013-09-24 00:45:00,49.6,48.5,29.95,N/A,-737280,0.0,-999.0,96,0.00,,,0.29,0,Wunderground v.1.15,2013-09-24 07:45:00,
2013-09-24 00:49:00,49.5,48.0,29.95,NW,306,0.0,0.0,96,0.00,,,0.00,0,weatherlink.com 1.10,2013-09-24 07:49:00,
2013-09-24 00:50:00,49.6,48.5,29.95,N/A,-737280,0.0,-999.0,96,0.00,,,0.29,0,Wunderground v.1.15,2013-09-24 07:50:00,
2013-09-24 00:55:00,49.5,48.4,29.95,N/A,-737280,0.0,-999.0,96,0.00,,,0.29,0,Wunderground v.1.15,2013-09-24 07:55:00,
2013-09-24 01:00:00,49.5,48.4,29.95,N/A,-737280,0.0,-999.0,96,0.00,,,0.29,0,Wunderground v.1.15,2013-09-24 08:00:00,
2013-09-24 01:04:00,49.4,48.0,29.95,NW,306,0.0,0.0,96,0.00,,,0.00,0,weatherlink.com 1.10,2013-09-24 08:04:00,
2013-09-24 01:05:00,49.5,48.4,29.95,N/A,-737280,0.0,-999.0,96,0.00,,,0.29,0,Wunderground v.1.15,2013-09-24 08:05:00,
2013-09-24 01:10:00,49.4,48.3,29.95,N/A,-737280,0.0,-999.0,96,0.00,,,0.29,0,Wunderground v.1.15,2013-09-24 08:10:00,
2013-09-24 01:15:00,49.4,48.3,29.95,N/A,-737280,0.0,-999.0,96,0.00,,,0.29,0,Wunderground v.1.15,2013-09-24 08:15:00,
2013-09-24 01:19:00,49.3,48.0,29.95,NW,306,0.0,0.0,96,0.00,,,0.00,0,weatherlink.com 1.10,2013-09-24 08:19:00,
2013-09-24 01:20:00,49.4,48.3,29.95,N/A,-737280,0.0,-999.0,96,0.00,,,0.29,0,Wunderground v.1.15,2013-09-24 08:20:00,
2013-09-24 01:25:00,49.3,48.2,29.95,N/A,-737280,0.0,-999.0,96,0.00,,,0.29,0,Wunderground v.1.15,2013-09-24 08:25:00,
2013-09-24 01:30:00,49.3,48.2,29.95,N/A,-737280,0.0,-999.0,96,0.00,,,0.29,0,Wunderground v.1.15,2013-09-24 08:30:00,
2013-09-24 01:34:00,49.2,48.0,29.95,NW,306,0.0,0.0,96,0.00,,,0.00,0,weatherlink.com 1.10,2013-09-24 08:34:00,
2013-09-24 01:35:00,49.3,48.2,29.95,N/A,-737280,0.0,-999.0,96,0.00,,,0.29,0,Wunderground v.1.15,2013-09-24 08:35:00,
2013-09-24 01:40:00,49.2,48.1,29.94,N/A,-737280,0.0,-999.0,96,0.00,,,0.29,0,Wunderground v.1.15,2013-09-24 08:40:00,
2013-09-24 01:45:00,49.2,48.1,29.94,N/A,-737280,0.0,-999.0,96,0.00,,,0.29,0,Wunderground v.1.15,2013-09-24 08:45:00,
2013-09-24 01:49:00,49.2,48.0,29.94,NW,306,0.0,0.0,96,0.00,,,0.00,0,weatherlink.com 1.10,2013-09-24 08:49:00,
2013-09-24 01:50:00,49.2,48.1,29.94,N/A,-737280,0.0,-999.0,96,0.00,,,0.29,0,Wunderground v.1.15,2013-09-24 08:50:00,
2013-09-24 01:55:00,49.2,48.1,29.94,N/A,-737280,0.0,-999.0,96,0.00,,,0.29,0,Wunderground v.1.15,2013-09-24 08:55:00,
2013-09-24 02:00:00,49.2,48.1,29.94,N/A,-737280,0.0,-999.0,96,0.00,,,0.29,0,Wunderground v.1.15,2013-09-24 09:00:00,
2013-09-24 02:04:00,49.1,48.0,29.94,NW,306,0.0,0.0,96,0.00,,,0.00,0,weatherlink.com 1.10,2013-09-24 09:04:00,
2013-09-24 02:05:00,49.2,48.1,29.94,N/A,-737280,0.0,-999.0,96,0.00,,,0.29,0,Wunderground v.1.15,2013-09-24 09:05:00,
2013-09-24 02:10:00,49.0,47.9,29.95,N/A,-737280,0.0,-999.0,96,0.00,,,0.29,0,Wunderground v.1.15,2013-09-24 09:10:00,
2013-09-24 02:15:00,49.0,47.9,29.95,N/A,-737280,0.0,-999.0,96,0.00,,,0.29,0,Wunderground v.1.15,2013-09-24 09:15:00,
2013-09-24 02:19:00,48.8,48.0,29.95,NW,306,0.0,0.0,96,0.00,,,0.00,0,weatherlink.com 1.10,2013-09-24 09:19:00,
2013-09-24 02:20:00,49.0,47.9,29.95,N/A,-737280,0.0,-999.0,96,0.00,,,0.29,0,Wunderground v.1.15,2013-09-24 09:20:00,
2013-09-24 02:25:00,48.7,47.6,29.94,N/A,-737280,0.0,-999.0,96,0.00,,,0.29,0,Wunderground v.1.15,2013-09-24 09:25:00,
2013-09-24 02:30:00,48.7,47.6,29.94,N/A,-737280,0.0,-999.0,96,0.00,,,0.29,0,Wunderground v.1.15,2013-09-24 09:30:00,
2013-09-24 02:34:00,48.6,48.0,29.94,NW,306,0.0,0.0,96,0.00,,,0.00,0,weatherlink.com 1.10,2013-09-24 09:34:00,
2013-09-24 02:35:00,48.7,47.6,29.94,N/A,-737280,0.0,-999.0,96,0.00,,,0.29,0,Wunderground v.1.15,2013-09-24 09:35:00,
2013-09-24 02:40:00,48.6,47.5,29.94,N/A,-737280,0.0,-999.0,96,0.00,,,0.29,0,Wunderground v.1.15,2013-09-24 09:40:00,
2013-09-24 02:45:00,48.6,47.5,29.94,N/A,-737280,0.0,-999.0,96,0.00,,,0.29,0,Wunderground v.1.15,2013-09-24 09:45:00,
2013-09-24 02:49:00,48.6,48.0,29.94,NW,306,0.0,0.0,96,0.00,,,0.00,0,weatherlink.com 1.10,2013-09-24 09:49:00,
2013-09-24 02:50:00,48.6,47.5,29.94,N/A,-737280,0.0,-999.0,96,0.00,,,0.29,0,Wunderground v.1.15,2013-09-24 09:50:00,
2013-09-24 02:55:00,48.5,47.4,29.94,N/A,-737280,0.0,-999.0,96,0.00,,,0.29,0,Wunderground v.1.15,2013-09-24 09:55:00,
2013-09-24 03:00:00,48.5,47.4,29.94,N/A,-737280,0.0,-999.0,96,0.00,,,0.29,0,Wunderground v.1.15,2013-09-24 10:00:00,
2013-09-24 03:04:00,48.3,47.0,29.94,NW,306,0.0,0.0,96,0.00,,,0.00,0,weatherlink.com 1.10,2013-09-24 10:04:00,
2013-09-24 03:05:00,48.5,47.4,29.94,N/A,-737280,0.0,-999.0,96,0.00,,,0.29,0,Wunderground v.1.15,2013-09-24 10:05:00,
2013-09-24 03:10:00,48.2,47.1,29.94,N/A,-737280,0.0,-999.0,96,0.01,,,0.29,0,Wunderground v.1.15,2013-09-24 10:10:00,
2013-09-24 03:15:00,48.2,47.1,29.94,N/A,-737280,0.0,-999.0,96,0.01,,,0.29,0,Wunderground v.1.15,2013-09-24 10:15:00,
2013-09-24 03:19:00,47.9,47.0,29.94,NW,306,0.0,0.0,96,0.01,,,0.01,0,weatherlink.com 1.10,2013-09-24 10:19:00,
2013-09-24 03:20:00,48.2,47.1,29.94,N/A,-737280,0.0,-999.0,96,0.01,,,0.29,0,Wunderground v.1.15,2013-09-24 10:20:00,
2013-09-24 03:25:00,47.8,46.7,29.94,N/A,-737280,0.0,-999.0,96,0.01,,,0.29,0,Wunderground v.1.15,2013-09-24 10:25:00,
2013-09-24 03:30:00,47.8,46.7,29.94,N/A,-737280,0.0,-999.0,96,0.01,,,0.29,0,Wunderground v.1.15,2013-09-24 10:30:00,
2013-09-24 03:34:00,47.7,47.0,29.94,NW,306,0.0,0.0,96,0.01,,,0.01,0,weatherlink.com 1.10,2013-09-24 10:34:00,
2013-09-24 03:35:00,47.8,46.7,29.94,N/A,-737280,0.0,-999.0,96,0.01,,,0.29,0,Wunderground v.1.15,2013-09-24 10:35:00,
2013-09-24 03:40:00,47.7,46.6,29.93,N/A,-737280,0.0,-999.0,96,0.01,,,0.29,0,Wunderground v.1.15,2013-09-24 10:40:00,
2013-09-24 03:45:00,47.7,46.6,29.93,N/A,-737280,0.0,-999.0,96,0.01,,,0.29,0,Wunderground v.1.15,2013-09-24 10:45:00,
2013-09-24 03:49:00,47.6,47.0,29.93,NW,306,0.0,0.0,96,0.01,,,0.01,0,weatherlink.com 1.10,2013-09-24 10:49:00,
2013-09-24 03:50:00,47.7,46.6,29.93,N/A,-737280,0.0,-999.0,96,0.01,,,0.29,0,Wunderground v.1.15,2013-09-24 10:50:00,
2013-09-24 03:55:00,47.5,46.4,29.93,N/A,-737280,0.0,-999.0,96,0.01,,,0.29,0,Wunderground v.1.15,2013-09-24 10:55:00,
2013-09-24 04:00:00,47.5,46.4,29.93,N/A,-737280,0.0,-999.0,96,0.01,,,0.29,0,Wunderground v.1.15,2013-09-24 11:00:00,
2013-09-24 04:04:00,47.5,47.0,29.93,NW,306,0.0,0.0,96,0.01,,,0.01,0,weatherlink.com 1.10,2013-09-24 11:04:00,
2013-09-24 04:05:00,47.5,46.4,29.93,N/A,-737280,0.0,-999.0,96,0.01,,,0.29,0,Wunderground v.1.15,2013-09-24 11:05:00,
2013-09-24 04:10:00,47.6,46.8,29.93,N/A,-737280,0.0,-999.0,97,0.00,,,0.29,0,Wunderground v.1.15,2013-09-24 11:10:00,
2013-09-24 04:15:00,47.6,46.8,29.93,N/A,-737280,0.0,-999.0,97,0.00,,,0.29,0,Wunderground v.1.15,2013-09-24 11:15:00,
2013-09-24 04:19:00,47.8,47.0,29.93,NW,306,0.0,1.0,97,0.00,,,0.01,0,weatherlink.com 1.10,2013-09-24 11:19:00,
2013-09-24 04:20:00,47.6,46.8,29.93,N/A,-737280,0.0,-999.0,97,0.00,,,0.29,0,Wunderground v.1.15,2013-09-24 11:20:00,
2013-09-24 04:25:00,47.8,46.7,29.93,NW,315,0.0,-999.0,96,0.00,,,0.29,0,Wunderground v.1.15,2013-09-24 11:25:00,
2013-09-24 04:30:00,47.8,46.7,29.93,NW,315,0.0,-999.0,96,0.00,,,0.29,0,Wunderground v.1.15,2013-09-24 11:30:00,
2013-09-24 04:34:00,48.0,47.0,29.93,NW,306,0.0,0.0,96,0.00,,,0.01,0,weatherlink.com 1.10,2013-09-24 11:34:00,
2013-09-24 04:35:00,47.8,46.7,29.93,NW,315,0.0,-999.0,96,0.00,,,0.29,0,Wunderground v.1.15,2013-09-24 11:35:00,
2013-09-24 04:40:00,48.0,46.9,29.93,N/A,-737280,0.0,-999.0,96,0.00,,,0.29,0,Wunderground v.1.15,2013-09-24 11:40:00,
2013-09-24 04:45:00,48.0,46.9,29.93,N/A,-737280,0.0,-999.0,96,0.00,,,0.29,0,Wunderground v.1.15,2013-09-24 11:45:00,
2013-09-24 04:49:00,48.2,47.0,29.93,NW,306,0.0,0.0,96,0.00,,,0.01,0,weatherlink.com 1.10,2013-09-24 11:49:00,
2013-09-24 04:50:00,48.0,46.9,29.93,N/A,-737280,0.0,-999.0,96,0.00,,,0.29,0,Wunderground v.1.15,2013-09-24 11:50:00,
2013-09-24 04:55:00,48.2,47.1,29.92,N/A,-737280,0.0,-999.0,96,0.00,,,0.29,0,Wunderground v.1.15,2013-09-24 11:55:00,
2013-09-24 05:00:00,48.2,47.1,29.92,N/A,-737280,0.0,-999.0,96,0.00,,,0.29,0,Wunderground v.1.15,2013-09-24 12:00:00,
2013-09-24 05:04:00,48.1,47.0,29.92,NW,306,0.0,0.0,97,0.00,,,0.01,0,weatherlink.com 1.10,2013-09-24 12:04:00,
2013-09-24 05:05:00,48.2,47.1,29.92,N/A,-737280,0.0,-999.0,96,0.00,,,0.29,0,Wunderground v.1.15,2013-09-24 12:05:00,
2013-09-24 05:10:00,48.1,47.0,29.92,N/A,-737280,0.0,-999.0,96,0.00,,,0.29,0,Wunderground v.1.15,2013-09-24 12:10:00,
2013-09-24 05:15:00,48.1,47.0,29.92,N/A,-737280,0.0,-999.0,96,0.00,,,0.29,0,Wunderground v.1.15,2013-09-24 12:15:00,
2013-09-24 05:19:00,48.2,47.0,29.92,NW,306,0.0,0.0,96,0.00,,,0.01,0,weatherlink.com 1.10,2013-09-24 12:19:00,
2013-09-24 05:20:00,48.1,47.0,29.92,N/A,-737280,0.0,-999.0,96,0.00,,,0.29,0,Wunderground v.1.15,2013-09-24 12:20:00,
2013-09-24 05:25:00,48.2,47.4,29.92,N/A,-737280,0.0,-999.0,97,0.00,,,0.29,0,Wunderground v.1.15,2013-09-24 12:25:00,
2013-09-24 05:30:00,48.2,47.4,29.92,N/A,-737280,0.0,-999.0,97,0.00,,,0.29,0,Wunderground v.1.15,2013-09-24 12:30:00,
2013-09-24 05:34:00,48.2,47.0,29.92,NW,306,0.0,0.0,97,0.00,,,0.01,0,weatherlink.com 1.10,2013-09-24 12:34:00,
2013-09-24 05:35:00,48.2,47.4,29.92,N/A,-737280,0.0,-999.0,97,0.00,,,0.29,0,Wunderground v.1.15,2013-09-24 12:35:00,
2013-09-24 05:40:00,48.2,47.1,29.92,N/A,-737280,0.0,-999.0,96,0.00,,,0.29,0,Wunderground v.1.15,2013-09-24 12:40:00,
2013-09-24 05:45:00,48.2,47.1,29.92,N/A,-737280,0.0,-999.0,96,0.00,,,0.29,0,Wunderground v.1.15,2013-09-24 12:45:00,
2013-09-24 05:49:00,48.0,47.0,29.91,NW,306,0.0,0.0,96,0.00,,,0.01,0,weatherlink.com 1.10,2013-09-24 12:49:00,
2013-09-24 05:50:00,48.2,47.1,29.92,N/A,-737280,0.0,-999.0,96,0.00,,,0.29,0,Wunderground v.1.15,2013-09-24 12:50:00,
2013-09-24 05:55:00,48.0,46.9,29.92,N/A,-737280,0.0,-999.0,96,0.00,,,0.29,0,Wunderground v.1.15,2013-09-24 12:55:00,
2013-09-24 06:00:00,48.0,46.9,29.92,N/A,-737280,0.0,-999.0,96,0.00,,,0.29,0,Wunderground v.1.15,2013-09-24 13:00:00,
2013-09-24 06:04:00,48.0,47.0,29.92,NW,308,0.0,1.0,96,0.00,,,0.01,0,weatherlink.com 1.10,2013-09-24 13:04:00,
2013-09-24 06:05:00,48.0,46.9,29.92,N/A,-737280,0.0,-999.0,96,0.00,,,0.29,0,Wunderground v.1.15,2013-09-24 13:05:00,
2013-09-24 06:10:00,48.1,47.0,29.92,NW,315,0.0,-999.0,96,0.00,,,0.29,0,Wunderground v.1.15,2013-09-24 13:10:00,
2013-09-24 06:15:00,48.1,47.0,29.92,NW,315,0.0,-999.0,96,0.00,,,0.29,0,Wunderground v.1.15,2013-09-24 13:15:00,
2013-09-24 06:19:00,48.2,47.0,29.92,NW,308,0.0,0.0,97,0.00,,,0.01,0,weatherlink.com 1.10,2013-09-24 13:19:00,
2013-09-24 06:20:00,48.1,47.0,29.92,NW,315,0.0,-999.0,96,0.00,,,0.29,0,Wunderground v.1.15,2013-09-24 13:20:00,
2013-09-24 06:25:00,48.3,47.5,29.92,NW,315,0.0,-999.0,97,0.00,,,0.29,0,Wunderground v.1.15,2013-09-24 13:25:00,
2013-09-24 06:30:00,48.3,47.5,29.92,NW,315,0.0,-999.0,97,0.00,,,0.29,0,Wunderground v.1.15,2013-09-24 13:30:00,
2013-09-24 06:34:00,48.4,48.0,29.91,NW,308,0.0,0.0,97,0.00,,,0.01,0,weatherlink.com 1.10,2013-09-24 13:34:00,
2013-09-24 06:35:00,48.3,47.5,29.92,NW,315,0.0,-999.0,97,0.00,,,0.29,0,Wunderground v.1.15,2013-09-24 13:35:00,
2013-09-24 06:40:00,48.5,47.7,29.92,N/A,-737280,0.0,-999.0,97,0.00,,,0.29,0,Wunderground v.1.15,2013-09-24 13:40:00,
2013-09-24 06:45:00,48.5,47.7,29.92,N/A,-737280,0.0,-999.0,97,0.00,,,0.29,0,Wunderground v.1.15,2013-09-24 13:45:00,
2013-09-24 06:49:00,48.5,48.0,29.91,NW,308,0.0,0.0,97,0.00,,,0.01,0,weatherlink.com 1.10,2013-09-24 13:49:00,
2013-09-24 06:50:00,48.5,47.7,29.92,N/A,-737280,0.0,-999.0,97,0.00,,,0.29,0,Wunderground v.1.15,2013-09-24 13:50:00,
2013-09-24 06:55:00,48.6,47.8,29.91,N/A,-737280,0.0,-999.0,97,0.00,,,0.29,0,Wunderground v.1.15,2013-09-24 13:55:00,
2013-09-24 07:00:00,48.6,47.8,29.91,N/A,-737280,0.0,-999.0,97,0.00,,,0.29,0,Wunderground v.1.15,2013-09-24 14:00:00,
2013-09-24 07:04:00,48.6,48.0,29.91,NW,308,0.0,0.0,97,0.00,,,0.01,0,weatherlink.com 1.10,2013-09-24 14:04:00,
2013-09-24 07:05:00,48.6,47.8,29.91,N/A,-737280,0.0,-999.0,97,0.00,,,0.29,0,Wunderground v.1.15,2013-09-24 14:05:00,
2013-09-24 07:10:00,48.6,47.8,29.91,N/A,-737280,0.0,-999.0,97,0.00,,,0.29,0,Wunderground v.1.15,2013-09-24 14:10:00,
2013-09-24 07:15:00,48.6,47.8,29.91,N/A,-737280,0.0,-999.0,97,0.00,,,0.29,0,Wunderground v.1.15,2013-09-24 14:15:00,
2013-09-24 07:19:00,48.8,48.0,29.91,NW,308,0.0,0.0,97,0.00,,,0.01,0,weatherlink.com 1.10,2013-09-24 14:19:00,
2013-09-24 07:20:00,48.6,47.8,29.91,N/A,-737280,0.0,-999.0,97,0.00,,,0.29,0,Wunderground v.1.15,2013-09-24 14:20:00,
2013-09-24 07:25:00,48.9,48.1,29.91,N/A,-737280,0.0,-999.0,97,0.00,,,0.29,4,Wunderground v.1.15,2013-09-24 14:25:00,
2013-09-24 07:30:00,48.9,48.1,29.91,N/A,-737280,0.0,-999.0,97,0.00,,,0.29,4,Wunderground v.1.15,2013-09-24 14:30:00,
2013-09-24 07:34:00,49.2,48.0,29.91,NW,308,0.0,0.0,97,0.00,,,0.01,11,weatherlink.com 1.10,2013-09-24 14:34:00,
2013-09-24 07:35:00,48.9,48.1,29.91,N/A,-737280,0.0,-999.0,97,0.00,,,0.29,4,Wunderground v.1.15,2013-09-24 14:35:00,
2013-09-24 07:40:00,49.2,48.4,29.91,N/A,-737280,0.0,-999.0,97,0.00,,,0.29,26,Wunderground v.1.15,2013-09-24 14:40:00,
2013-09-24 07:45:00,49.2,48.4,29.91,N/A,-737280,0.0,-999.0,97,0.00,,,0.29,26,Wunderground v.1.15,2013-09-24 14:45:00,
2013-09-24 07:49:00,49.4,49.0,29.91,NW,308,0.0,0.0,97,0.00,,,0.01,62,weatherlink.com 1.10,2013-09-24 14:49:00,
2013-09-24 07:50:00,49.2,48.4,29.91,N/A,-737280,0.0,-999.0,97,0.00,,,0.29,26,Wunderground v.1.15,2013-09-24 14:50:00,
2013-09-24 07:55:00,49.5,48.7,29.91,N/A,-737280,0.0,-999.0,97,0.00,,,0.29,62,Wunderground v.1.15,2013-09-24 14:55:00,
2013-09-24 08:00:00,49.5,48.7,29.91,N/A,-737280,0.0,-999.0,97,0.00,,,0.29,62,Wunderground v.1.15,2013-09-24 15:00:00,
2013-09-24 08:04:00,49.7,49.0,29.91,NW,308,0.0,0.0,97,0.00,,,0.01,62,weatherlink.com 1.10,2013-09-24 15:04:00,
2013-09-24 08:05:00,49.5,48.7,29.91,N/A,-737280,0.0,-999.0,97,0.00,,,0.29,62,Wunderground v.1.15,2013-09-24 15:05:00,
2013-09-24 08:10:00,49.8,49.0,29.91,N/A,-737280,0.0,-999.0,97,0.00,,,0.29,56,Wunderground v.1.15,2013-09-24 15:10:00,
2013-09-24 08:15:00,49.8,49.0,29.91,N/A,-737280,0.0,-999.0,97,0.00,,,0.29,56,Wunderground v.1.15,2013-09-24 15:15:00,
2013-09-24 08:19:00,50.0,49.0,29.91,NW,308,0.0,0.0,97,0.00,,,0.01,60,weatherlink.com 1.10,2013-09-24 15:19:00,
2013-09-24 08:20:00,49.8,49.0,29.91,N/A,-737280,0.0,-999.0,97,0.00,,,0.29,56,Wunderground v.1.15,2013-09-24 15:20:00,
2013-09-24 08:25:00,50.1,49.3,29.91,NW,315,0.0,-999.0,97,0.00,,,0.29,68,Wunderground v.1.15,2013-09-24 15:25:00,
2013-09-24 08:30:00,50.1,49.3,29.91,NW,315,0.0,-999.0,97,0.00,,,0.29,68,Wunderground v.1.15,2013-09-24 15:30:00,
2013-09-24 08:35:00,50.2,49.0,29.91,NW,308,0.0,1.0,97,0.00,,,0.01,51,weatherlink.com 1.10,2013-09-24 15:35:00,
2013-09-24 08:40:00,50.3,49.5,29.91,N/A,-737280,0.0,-999.0,97,0.00,,,0.29,62,Wunderground v.1.15,2013-09-24 15:40:00,
2013-09-24 08:45:00,50.3,49.5,29.91,N/A,-737280,0.0,-999.0,97,0.00,,,0.29,62,Wunderground v.1.15,2013-09-24 15:45:00,
2013-09-24 08:50:00,50.4,50.0,29.91,NW,308,0.0,0.0,97,0.00,,,0.01,56,weatherlink.com 1.10,2013-09-24 15:50:00,
2013-09-24 08:55:00,50.5,49.7,29.91,N/A,-737280,0.0,-999.0,97,0.00,,,0.29,54,Wunderground v.1.15,2013-09-24 15:55:00,
2013-09-24 09:00:00,50.5,49.7,29.91,N/A,-737280,0.0,-999.0,97,0.00,,,0.29,54,Wunderground v.1.15,2013-09-24 16:00:00,
2013-09-24 09:05:00,50.7,50.0,29.91,NW,308,0.0,0.0,97,0.00,,,0.01,60,weatherlink.com 1.10,2013-09-24 16:05:00,
2013-09-24 09:10:00,50.7,49.9,29.91,N/A,-737280,0.0,-999.0,97,0.00,,,0.29,78,Wunderground v.1.15,2013-09-24 16:10:00,
2013-09-24 09:15:00,50.7,49.9,29.91,N/A,-737280,0.0,-999.0,97,0.00,,,0.29,78,Wunderground v.1.15,2013-09-24 16:15:00,
2013-09-24 09:20:00,51.0,50.0,29.91,NW,308,0.0,0.0,97,0.00,,,0.01,114,weatherlink.com 1.10,2013-09-24 16:20:00,
2013-09-24 09:25:00,51.3,50.5,29.91,N/A,-737280,0.0,-999.0,97,0.00,,,0.29,157,Wunderground v.1.15,2013-09-24 16:25:00,
2013-09-24 09:30:00,51.3,50.5,29.91,N/A,-737280,0.0,-999.0,97,0.00,,,0.29,157,Wunderground v.1.15,2013-09-24 16:30:00,
2013-09-24 09:35:00,51.8,51.0,29.91,NW,309,0.0,1.0,97,0.00,,,0.01,336,weatherlink.com 1.10,2013-09-24 16:35:00,
2013-09-24 09:40:00,52.3,51.5,29.91,ESE,113,0.0,-999.0,97,0.00,,,0.29,328,Wunderground v.1.15,2013-09-24 16:40:00,
2013-09-24 09:45:00,52.3,51.5,29.91,ESE,113,0.0,-999.0,97,0.00,,,0.29,328,Wunderground v.1.15,2013-09-24 16:45:00,
2013-09-24 09:50:00,53.2,52.0,29.91,ESE,113,0.0,2.0,97,0.00,,,0.01,315,weatherlink.com 1.10,2013-09-24 16:50:00,
2013-09-24 09:55:00,53.5,52.1,29.90,ESE,113,0.0,-999.0,95,0.00,,,0.29,249,Wunderground v.1.15,2013-09-24 16:55:00,
2013-09-24 10:00:00,53.5,52.1,29.90,ESE,113,0.0,-999.0,95,0.00,,,0.29,249,Wunderground v.1.15,2013-09-24 17:00:00,
2013-09-24 10:05:00,54.0,52.0,29.90,SE,126,0.0,2.0,94,0.00,,,0.01,185,weatherlink.com 1.10,2013-09-24 17:05:00,
2013-09-24 10:10:00,54.1,51.8,29.90,SE,135,0.0,-999.0,92,0.00,,,0.29,159,Wunderground v.1.15,2013-09-24 17:10:00,
2013-09-24 10:15:00,54.1,51.8,29.90,SE,135,0.0,-999.0,92,0.00,,,0.29,159,Wunderground v.1.15,2013-09-24 17:15:00,
2013-09-24 10:20:00,54.3,52.0,29.90,East,101,0.0,3.0,91,0.00,,,0.01,216,weatherlink.com 1.10,2013-09-24 17:20:00,
2013-09-24 10:25:00,54.3,52.0,29.90,ESE,113,0.0,-999.0,92,0.00,,,0.29,204,Wunderground v.1.15,2013-09-24 17:25:00,
2013-09-24 10:30:00,54.3,52.0,29.90,ESE,113,0.0,-999.0,92,0.00,,,0.29,204,Wunderground v.1.15,2013-09-24 17:30:00,
2013-09-24 10:35:00,54.3,52.0,29.90,East,94,0.0,2.0,92,0.00,,,0.01,267,weatherlink.com 1.10,2013-09-24 17:35:00,
2013-09-24 10:40:00,54.6,51.7,29.90,SE,135,0.0,-999.0,90,0.00,,,0.29,238,Wunderground v.1.15,2013-09-24 17:40:00,
2013-09-24 10:45:00,54.6,51.7,29.90,SE,135,0.0,-999.0,90,0.00,,,0.29,238,Wunderground v.1.15,2013-09-24 17:45:00,
2013-09-24 10:50:00,55.0,52.0,29.90,SSW,193,0.0,2.0,89,0.00,,,0.01,135,weatherlink.com 1.10,2013-09-24 17:50:00,
2013-09-24 10:55:00,55.0,51.5,29.89,SSW,203,0.0,-999.0,88,0.00,,,0.29,135,Wunderground v.1.15,2013-09-24 17:55:00,
2013-09-24 11:00:00,55.0,51.5,29.89,SSW,203,0.0,-999.0,88,0.00,,,0.29,135,Wunderground v.1.15,2013-09-24 18:00:00,
2013-09-24 11:05:00,55.1,52.0,29.89,SE,146,0.0,2.0,88,0.00,,,0.01,160,weatherlink.com 1.10,2013-09-24 18:05:00,
2013-09-24 11:10:00,55.2,51.4,29.89,ESE,113,0.0,-999.0,87,0.00,,,0.29,196,Wunderground v.1.15,2013-09-24 18:10:00,
2013-09-24 11:15:00,55.2,51.4,29.89,ESE,113,0.0,-999.0,87,0.00,,,0.29,196,Wunderground v.1.15,2013-09-24 18:15:00,
2013-09-24 11:20:00,55.6,52.0,29.89,East,94,0.0,2.0,87,0.00,,,0.01,232,weatherlink.com 1.10,2013-09-24 18:20:00,
2013-09-24 11:25:00,55.8,51.7,29.89,ESE,113,0.0,-999.0,86,0.00,,,0.29,237,Wunderground v.1.15,2013-09-24 18:25:00,
2013-09-24 11:30:00,55.8,51.7,29.89,ESE,113,0.0,-999.0,86,0.00,,,0.29,237,Wunderground v.1.15,2013-09-24 18:30:00,
2013-09-24 11:35:00,56.3,52.0,29.89,East,84,1.0,4.0,85,0.00,,,0.01,294,weatherlink.com 1.10,2013-09-24 18:35:00,
2013-09-24 11:40:00,56.5,52.4,29.88,East,90,1.0,-999.0,86,0.00,,,0.29,446,Wunderground v.1.15,2013-09-24 18:40:00,
2013-09-24 11:45:00,56.5,52.4,29.88,East,90,1.0,-999.0,86,0.00,,,0.29,446,Wunderground v.1.15,2013-09-24 18:45:00,
2013-09-24 11:50:00,57.7,52.0,29.88,South,175,1.0,2.0,82,0.00,,,0.01,645,weatherlink.com 1.10,2013-09-24 18:50:00,
2013-09-24 11:55:00,58.3,51.1,29.88,South,180,1.0,-999.0,77,0.00,,,0.29,595,Wunderground v.1.15,2013-09-24 18:55:00,
2013-09-24 12:00:00,58.3,51.1,29.88,South,180,1.0,-999.0,77,0.00,,,0.29,595,Wunderground v.1.15,2013-09-24 19:00:00,
2013-09-24 12:05:00,58.9,52.0,29.88,SSE,152,0.0,5.0,77,0.00,,,0.01,104,weatherlink.com 1.10,2013-09-24 19:05:00,
2013-09-24 12:10:00,58.5,52.0,29.87,ESE,113,1.0,-999.0,79,0.00,,,0.29,133,Wunderground v.1.15,2013-09-24 19:10:00,
2013-09-24 12:15:00,58.5,52.0,29.87,ESE,113,1.0,-999.0,79,0.00,,,0.29,133,Wunderground v.1.15,2013-09-24 19:15:00,
2013-09-24 12:20:00,57.7,51.0,29.87,ESE,115,0.0,3.0,79,0.00,,,0.01,250,weatherlink.com 1.10,2013-09-24 19:20:00,
2013-09-24 12:25:00,57.7,51.6,29.86,ESE,113,1.0,-999.0,80,0.00,,,0.29,301,Wunderground v.1.15,2013-09-24 19:25:00,
2013-09-24 12:30:00,57.7,51.6,29.86,ESE,113,1.0,-999.0,80,0.00,,,0.29,301,Wunderground v.1.15,2013-09-24 19:30:00,
2013-09-24 12:35:00,58.1,52.0,29.86,SSE,158,0.0,4.0,80,0.00,,,0.01,179,weatherlink.com 1.10,2013-09-24 19:35:00,
2013-09-24 12:40:00,58.0,52.2,29.86,SSE,158,0.0,-999.0,81,0.00,,,0.29,122,Wunderground v.1.15,2013-09-24 19:40:00,
2013-09-24 12:45:00,58.0,52.2,29.86,SSE,158,0.0,-999.0,81,0.00,,,0.29,122,Wunderground v.1.15,2013-09-24 19:45:00,
2013-09-24 12:50:00,57.3,52.0,29.86,South,190,0.0,3.0,83,0.00,,,0.01,65,weatherlink.com 1.10,2013-09-24 19:50:00,
2013-09-24 12:55:00,56.7,53.2,29.86,NW,315,1.0,-999.0,88,0.04,,,0.29,89,Wunderground v.1.15,2013-09-24 19:55:00,
2013-09-24 13:00:00,56.7,53.2,29.86,NW,315,1.0,-999.0,88,0.04,,,0.29,89,Wunderground v.1.15,2013-09-24 20:00:00,
2013-09-24 13:05:00,55.5,52.0,29.86,NNW,344,0.0,4.0,89,0.04,,,0.05,74,weatherlink.com 1.10,2013-09-24 20:05:00,
2013-09-24 13:10:00,55.1,52.5,29.86,NNW,338,1.0,-999.0,91,0.05,,,0.29,63,Wunderground v.1.15,2013-09-24 20:10:00,
2013-09-24 13:15:00,55.1,52.5,29.86,NNW,338,1.0,-999.0,91,0.05,,,0.29,63,Wunderground v.1.15,2013-09-24 20:15:00,
2013-09-24 13:20:00,54.2,51.0,29.86,NW,305,0.0,3.0,90,0.05,,,0.06,88,weatherlink.com 1.10,2013-09-24 20:20:00,
2013-09-24 13:25:00,54.3,52.3,29.85,NW,315,0.0,-999.0,93,0.05,,,0.29,104,Wunderground v.1.15,2013-09-24 20:25:00,
2013-09-24 13:30:00,54.3,52.3,29.85,NW,315,0.0,-999.0,93,0.05,,,0.29,104,Wunderground v.1.15,2013-09-24 20:30:00,
2013-09-24 13:35:00,54.5,52.0,29.85,NW,308,0.0,0.0,92,0.05,,,0.06,88,weatherlink.com 1.10,2013-09-24 20:35:00,
2013-09-24 13:40:00,54.6,52.3,29.85,NNW,338,0.0,-999.0,92,0.05,,,0.29,162,Wunderground v.1.15,2013-09-24 20:40:00,
2013-09-24 13:45:00,54.6,52.3,29.85,NNW,338,0.0,-999.0,92,0.05,,,0.29,162,Wunderground v.1.15,2013-09-24 20:45:00,
2013-09-24 13:50:00,54.9,53.0,29.85,NNW,334,0.0,1.0,92,0.04,,,0.06,151,weatherlink.com 1.10,2013-09-24 20:50:00,
2013-09-24 13:55:00,55.2,53.2,29.84,NNE,23,0.0,-999.0,93,0.01,,,0.29,175,Wunderground v.1.15,2013-09-24 20:55:00,
2013-09-24 14:00:00,55.2,53.2,29.84,NNE,23,0.0,-999.0,93,0.01,,,0.29,175,Wunderground v.1.15,2013-09-24 21:00:00,
2013-09-24 14:05:00,55.9,54.0,29.84,ESE,105,1.0,2.0,93,0.01,,,0.06,139,weatherlink.com 1.10,2013-09-24 21:05:00,
2013-09-24 14:10:00,56.1,53.8,29.84,ESE,113,1.0,-999.0,92,0.00,,,0.29,341,Wunderground v.1.15,2013-09-24 21:10:00,
2013-09-24 14:15:00,56.1,53.8,29.84,ESE,113,1.0,-999.0,92,0.00,,,0.29,341,Wunderground v.1.15,2013-09-24 21:15:00,
2013-09-24 14:20:00,57.1,55.0,29.84,WNW,298,2.0,5.0,91,0.00,,,0.06,174,weatherlink.com 1.10,2013-09-24 21:20:00,
2013-09-24 14:25:00,57.2,53.7,29.84,NNW,338,1.0,-999.0,88,0.00,,,0.29,184,Wunderground v.1.15,2013-09-24 21:25:00,
2013-09-24 14:30:00,57.2,53.7,29.84,NNW,338,1.0,-999.0,88,0.00,,,0.29,184,Wunderground v.1.15,2013-09-24 21:30:00,
2013-09-24 14:35:00,57.0,53.0,29.84,NNW,327,0.0,3.0,87,0.00,,,0.06,202,weatherlink.com 1.10,2013-09-24 21:35:00,
2013-09-24 14:40:00,57.1,53.3,29.84,NW,315,1.0,-999.0,87,0.00,,,0.29,384,Wunderground v.1.15,2013-09-24 21:40:00,
2013-09-24 14:45:00,57.1,53.3,29.84,NW,315,1.0,-999.0,87,0.00,,,0.29,384,Wunderground v.1.15,2013-09-24 21:45:00,
2013-09-24 14:50:00,57.9,54.0,29.84,NNW,333,2.0,3.0,86,0.00,,,0.06,577,weatherlink.com 1.10,2013-09-24 21:50:00,
2013-09-24 14:55:00,58.5,53.0,29.83,NNW,338,1.0,-999.0,82,0.00,,,0.29,533,Wunderground v.1.15,2013-09-24 21:55:00,
2013-09-24 15:00:00,58.5,53.0,29.83,NNW,338,1.0,-999.0,82,0.00,,,0.29,533,Wunderground v.1.15,2013-09-24 22:00:00,
2013-09-24 15:05:00,59.3,54.0,29.84,SE,138,0.0,4.0,83,0.00,,,0.06,149,weatherlink.com 1.10,2013-09-24 22:05:00,
2013-09-24 15:10:00,59.1,53.6,29.83,ESE,113,1.0,-999.0,82,0.00,,,0.29,129,Wunderground v.1.15,2013-09-24 22:10:00,
2013-09-24 15:15:00,59.1,53.6,29.83,ESE,113,1.0,-999.0,82,0.00,,,0.29,129,Wunderground v.1.15,2013-09-24 22:15:00,
2013-09-24 15:20:00,58.4,54.0,29.84,NE,34,0.0,3.0,84,0.00,,,0.06,183,weatherlink.com 1.10,2013-09-24 22:20:00,
2013-09-24 15:25:00,58.4,53.6,29.83,NE,45,0.0,-999.0,84,0.00,,,0.29,187,Wunderground v.1.15,2013-09-24 22:25:00,
2013-09-24 15:30:00,58.4,53.6,29.83,NE,45,0.0,-999.0,84,0.00,,,0.29,187,Wunderground v.1.15,2013-09-24 22:30:00,
2013-09-24 15:35:00,58.6,54.0,29.84,East,97,0.0,2.0,83,0.00,,,0.06,272,weatherlink.com 1.10,2013-09-24 22:35:00,
2013-09-24 15:40:00,58.9,53.4,29.83,ESE,113,0.0,-999.0,82,0.00,,,0.29,205,Wunderground v.1.15,2013-09-24 22:40:00,
2013-09-24 15:45:00,58.9,53.4,29.83,ESE,113,0.0,-999.0,82,0.00,,,0.29,205,Wunderground v.1.15,2013-09-24 22:45:00,
2013-09-24 15:50:00,58.9,53.0,29.83,SE,134,0.0,2.0,82,0.00,,,0.06,218,weatherlink.com 1.10,2013-09-24 22:50:00,
2013-09-24 15:55:00,58.9,53.1,29.83,SE,135,1.0,-999.0,81,0.00,,,0.29,181,Wunderground v.1.15,2013-09-24 22:55:00,
2013-09-24 16:00:00,58.9,53.1,29.83,SE,135,1.0,-999.0,81,0.00,,,0.29,181,Wunderground v.1.15,2013-09-24 23:00:00,
2013-09-24 16:05:00,58.9,53.1,29.83,SE,135,1.0,-999.0,81,0.00,,,0.29,181,Wunderground v.1.15,2013-09-24 23:05:00,
2013-09-24 16:06:00,58.8,53.0,29.83,SE,126,1.0,3.0,81,0.00,,,0.06,397,weatherlink.com 1.10,2013-09-24 23:06:00,
2013-09-24 16:10:00,58.9,53.1,29.83,ESE,113,1.0,-999.0,81,0.00,,,0.29,274,Wunderground v.1.15,2013-09-24 23:10:00,
2013-09-24 16:15:00,58.9,53.1,29.83,ESE,113,1.0,-999.0,81,0.00,,,0.29,274,Wunderground v.1.15,2013-09-24 23:15:00,
2013-09-24 16:20:00,58.6,53.0,29.83,ESE,107,1.0,3.0,81,0.00,,,0.06,160,weatherlink.com 1.10,2013-09-24 23:20:00,
2013-09-24 16:25:00,58.7,52.9,29.83,ESE,113,0.0,-999.0,81,0.00,,,0.29,167,Wunderground v.1.15,2013-09-24 23:25:00,
2013-09-24 16:30:00,58.7,52.9,29.83,ESE,113,0.0,-999.0,81,0.00,,,0.29,167,Wunderground v.1.15,2013-09-24 23:30:00,
2013-09-24 16:35:00,59.0,53.0,29.83,East,93,1.0,3.0,81,0.00,,,0.06,123,weatherlink.com 1.10,2013-09-24 23:35:00,
2013-09-24 16:40:00,59.0,52.8,29.83,East,90,0.0,-999.0,80,0.00,,,0.29,101,Wunderground v.1.15,2013-09-24 23:40:00,
2013-09-24 16:45:00,59.0,52.8,29.83,East,90,0.0,-999.0,80,0.00,,,0.29,101,Wunderground v.1.15,2013-09-24 23:45:00,
2013-09-24 16:50:00,58.7,53.0,29.83,East,99,0.0,3.0,80,0.00,,,0.06,74,weatherlink.com 1.10,2013-09-24 23:50:00,
2013-09-24 16:55:00,58.5,53.0,29.83,East,90,0.0,-999.0,82,0.00,,,0.29,66,Wunderground v.1.15,2013-09-24 23:55:00,
2013-09-24 17:00:00,58.5,53.0,29.83,East,90,0.0,-999.0,82,0.00,,,0.29,66,Wunderground v.1.15,2013-09-25 00:00:00,
2013-09-24 17:05:00,58.1,53.0,29.83,East,99,0.0,0.0,83,0.00,,,0.06,62,weatherlink.com 1.10,2013-09-25 00:05:00,
2013-09-24 17:10:00,57.9,53.1,29.83,East,90,0.0,-999.0,84,0.00,,,0.29,60,Wunderground v.1.15,2013-09-25 00:10:00,
2013-09-24 17:15:00,57.9,53.1,29.83,East,90,0.0,-999.0,84,0.00,,,0.29,60,Wunderground v.1.15,2013-09-25 00:15:00,
2013-09-24 17:20:00,57.5,52.0,29.83,SE,138,0.0,3.0,83,0.00,,,0.06,42,weatherlink.com 1.10,2013-09-25 00:20:00,
2013-09-24 17:25:00,57.3,52.5,29.83,SE,135,0.0,-999.0,84,0.00,,,0.29,33,Wunderground v.1.15,2013-09-25 00:25:00,
2013-09-24 17:30:00,57.3,52.5,29.83,SE,135,0.0,-999.0,84,0.00,,,0.29,33,Wunderground v.1.15,2013-09-25 00:30:00,
2013-09-24 17:35:00,56.9,53.0,29.82,ESE,105,0.0,0.0,85,0.00,,,0.06,14,weatherlink.com 1.10,2013-09-25 00:35:00,
2013-09-24 17:40:00,56.7,52.2,29.83,N/A,-737280,0.0,-999.0,85,0.00,,,0.29,11,Wunderground v.1.15,2013-09-25 00:40:00,
2013-09-24 17:45:00,56.7,52.2,29.83,N/A,-737280,0.0,-999.0,85,0.00,,,0.29,11,Wunderground v.1.15,2013-09-25 00:45:00,
2013-09-24 17:50:00,56.3,52.0,29.83,ESE,105,0.0,0.0,85,0.01,,,0.07,7,weatherlink.com 1.10,2013-09-25 00:50:00,
2013-09-24 17:55:00,55.9,52.4,29.83,ESE,113,0.0,-999.0,88,0.01,,,0.29,7,Wunderground v.1.15,2013-09-25 00:55:00,
2013-09-24 18:00:00,55.9,52.4,29.83,ESE,113,0.0,-999.0,88,0.01,,,0.29,7,Wunderground v.1.15,2013-09-25 01:00:00,
2013-09-24 18:05:00,55.2,52.0,29.83,ESE,105,0.0,0.0,89,0.01,,,0.07,14,weatherlink.com 1.10,2013-09-25 01:05:00,
2013-09-24 18:10:00,55.0,51.8,29.83,North,0,0.0,-999.0,89,0.01,,,0.29,15,Wunderground v.1.15,2013-09-25 01:10:00,
2013-09-24 18:15:00,55.0,51.8,29.83,North,0,0.0,-999.0,89,0.01,,,0.29,15,Wunderground v.1.15,2013-09-25 01:15:00,
2013-09-24 18:20:00,54.3,52.0,29.83,North,349,0.0,3.0,90,0.01,,,0.07,14,weatherlink.com 1.10,2013-09-25 01:20:00,
2013-09-24 18:25:00,54.3,52.0,29.84,ESE,113,0.0,-999.0,92,0.01,,,0.29,8,Wunderground v.1.15,2013-09-25 01:25:00,
2013-09-24 18:30:00,54.3,52.0,29.84,ESE,113,0.0,-999.0,92,0.01,,,0.29,8,Wunderground v.1.15,2013-09-25 01:30:00,
2013-09-24 18:35:00,54.1,52.0,29.84,ESE,114,0.0,1.0,92,0.02,,,0.08,0,weatherlink.com 1.10,2013-09-25 01:35:00,
2013-09-24 18:40:00,53.9,51.6,29.83,East,90,0.0,-999.0,92,0.13,,,0.29,0,Wunderground v.1.15,2013-09-25 01:40:00,
2013-09-24 18:45:00,53.9,51.6,29.83,East,90,0.0,-999.0,92,0.13,,,0.29,0,Wunderground v.1.15,2013-09-25 01:45:00,
2013-09-24 18:50:00,53.4,51.0,29.84,NE,34,0.0,1.0,92,0.15,,,0.22,0,weatherlink.com 1.10,2013-09-25 01:50:00,
2013-09-24 18:55:00,53.2,51.2,29.84,NE,45,0.0,-999.0,93,0.21,,,0.29,0,Wunderground v.1.15,2013-09-25 01:55:00,
2013-09-24 19:00:00,53.2,51.2,29.84,NE,45,0.0,-999.0,93,0.21,,,0.29,0,Wunderground v.1.15,2013-09-25 02:00:00,
2013-09-24 19:05:00,52.7,51.0,29.84,NNE,12,0.0,2.0,93,0.21,,,0.28,0,weatherlink.com 1.10,2013-09-25 02:05:00,
2013-09-24 19:10:00,52.5,50.5,29.84,SE,135,0.0,-999.0,93,0.21,,,0.29,0,Wunderground v.1.15,2013-09-25 02:10:00,
2013-09-24 19:15:00,52.5,50.5,29.84,SE,135,0.0,-999.0,93,0.21,,,0.29,0,Wunderground v.1.15,2013-09-25 02:15:00,
2013-09-24 19:20:00,52.1,50.0,29.84,ESE,102,0.0,2.0,93,0.21,,,0.28,0,weatherlink.com 1.10,2013-09-25 02:20:00,
2013-09-24 19:25:00,52.0,50.3,29.84,ESE,113,0.0,-999.0,94,0.21,,,0.29,0,Wunderground v.1.15,2013-09-25 02:25:00,
2013-09-24 19:30:00,52.0,50.3,29.84,ESE,113,0.0,-999.0,94,0.21,,,0.29,0,Wunderground v.1.15,2013-09-25 02:30:00,
2013-09-24 19:35:00,51.9,50.0,29.84,ESE,121,0.0,1.0,94,0.18,,,0.28,0,weatherlink.com 1.10,2013-09-25 02:35:00,
2013-09-24 19:40:00,51.8,50.4,29.84,ESE,113,0.0,-999.0,95,0.09,,,0.29,0,Wunderground v.1.15,2013-09-25 02:40:00,
2013-09-24 19:45:00,51.8,50.4,29.84,ESE,113,0.0,-999.0,95,0.09,,,0.29,0,Wunderground v.1.15,2013-09-25 02:45:00,
2013-09-24 19:50:00,51.7,50.0,29.84,ESE,123,0.0,0.0,94,0.05,,,0.28,0,weatherlink.com 1.10,2013-09-25 02:50:00,
2013-09-24 19:55:00,51.6,49.9,29.84,N/A,-737280,0.0,-999.0,94,0.01,,,0.29,0,Wunderground v.1.15,2013-09-25 02:55:00,
2013-09-24 20:00:00,51.6,49.9,29.84,N/A,-737280,0.0,-999.0,94,0.01,,,0.29,0,Wunderground v.1.15,2013-09-25 03:00:00,
2013-09-24 20:05:00,51.3,50.0,29.84,ESE,122,0.0,1.0,94,0.01,,,0.29,0,weatherlink.com 1.10,2013-09-25 03:05:00,
2013-09-24 20:10:00,51.3,49.9,29.84,ESE,113,0.0,-999.0,95,0.01,,,0.29,0,Wunderground v.1.15,2013-09-25 03:10:00,
2013-09-24 20:15:00,51.3,49.9,29.84,ESE,113,0.0,-999.0,95,0.01,,,0.29,0,Wunderground v.1.15,2013-09-25 03:15:00,
2013-09-24 20:20:00,51.2,50.0,29.84,ESE,122,1.0,1.0,95,0.01,,,0.29,0,weatherlink.com 1.10,2013-09-25 03:20:00,
2013-09-24 20:25:00,51.2,49.8,29.85,ESE,113,0.0,-999.0,95,0.01,,,0.29,0,Wunderground v.1.15,2013-09-25 03:25:00,
2013-09-24 20:30:00,51.2,49.8,29.85,ESE,113,0.0,-999.0,95,0.01,,,0.29,0,Wunderground v.1.15,2013-09-25 03:30:00,
2013-09-24 20:35:00,51.1,50.0,29.85,ESE,122,0.0,0.0,95,0.01,,,0.29,0,weatherlink.com 1.10,2013-09-25 03:35:00,
2013-09-24 20:40:00,51.1,49.7,29.85,N/A,-737280,0.0,-999.0,95,0.01,,,0.29,0,Wunderground v.1.15,2013-09-25 03:40:00,
2013-09-24 20:45:00,51.1,49.7,29.85,N/A,-737280,0.0,-999.0,95,0.01,,,0.29,0,Wunderground v.1.15,2013-09-25 03:45:00,
2013-09-24 20:50:00,51.0,50.0,29.85,ESE,122,0.0,0.0,95,0.01,,,0.29,0,weatherlink.com 1.10,2013-09-25 03:50:00,
2013-09-24 20:55:00,51.0,49.6,29.85,N/A,-737280,0.0,-999.0,95,0.00,,,0.29,0,Wunderground v.1.15,2013-09-25 03:55:00,
2013-09-24 21:00:00,51.0,49.6,29.85,N/A,-737280,0.0,-999.0,95,0.00,,,0.29,0,Wunderground v.1.15,2013-09-25 04:00:00,
2013-09-24 21:05:00,50.9,50.0,29.85,ESE,122,0.0,0.0,95,0.00,,,0.29,0,weatherlink.com 1.10,2013-09-25 04:05:00,
2013-09-24 21:10:00,50.8,49.4,29.85,N/A,-737280,0.0,-999.0,95,0.00,,,0.29,0,Wunderground v.1.15,2013-09-25 04:10:00,
2013-09-24 21:15:00,50.8,49.4,29.85,N/A,-737280,0.0,-999.0,95,0.00,,,0.29,0,Wunderground v.1.15,2013-09-25 04:15:00,
2013-09-24 21:20:00,50.6,49.0,29.85,ESE,122,0.0,0.0,95,0.00,,,0.29,0,weatherlink.com 1.10,2013-09-25 04:20:00,
2013-09-24 21:25:00,50.5,49.1,29.85,N/A,-737280,0.0,-999.0,95,0.00,,,0.29,0,Wunderground v.1.15,2013-09-25 04:25:00,
2013-09-24 21:30:00,50.5,49.1,29.85,N/A,-737280,0.0,-999.0,95,0.00,,,0.29,0,Wunderground v.1.15,2013-09-25 04:30:00,
2013-09-24 21:35:00,50.3,49.0,29.85,ESE,122,0.0,0.0,95,0.00,,,0.29,0,weatherlink.com 1.10,2013-09-25 04:35:00,
2013-09-24 21:40:00,50.3,48.9,29.85,N/A,-737280,0.0,-999.0,95,0.00,,,0.29,0,Wunderground v.1.15,2013-09-25 04:40:00,
2013-09-24 21:45:00,50.3,48.9,29.85,N/A,-737280,0.0,-999.0,95,0.00,,,0.29,0,Wunderground v.1.15,2013-09-25 04:45:00,
2013-09-24 21:50:00,50.3,49.0,29.85,ESE,122,0.0,0.0,95,0.00,,,0.29,0,weatherlink.com 1.10,2013-09-25 04:50:00,
2013-09-24 21:55:00,50.2,48.8,29.85,N/A,-737280,0.0,-999.0,95,0.00,,,0.29,0,Wunderground v.1.15,2013-09-25 04:55:00,
2013-09-24 22:00:00,50.2,48.8,29.85,N/A,-737280,0.0,-999.0,95,0.00,,,0.29,0,Wunderground v.1.15,2013-09-25 05:00:00,
2013-09-24 22:05:00,50.3,49.0,29.85,ESE,122,0.0,0.0,95,0.00,,,0.29,0,weatherlink.com 1.10,2013-09-25 05:05:00,
2013-09-24 22:10:00,50.3,49.2,29.85,N/A,-737280,0.0,-999.0,96,0.00,,,0.29,0,Wunderground v.1.15,2013-09-25 05:10:00,
2013-09-24 22:15:00,50.3,49.2,29.85,N/A,-737280,0.0,-999.0,96,0.00,,,0.29,0,Wunderground v.1.15,2013-09-25 05:15:00,
2013-09-24 22:20:00,50.2,49.0,29.85,ESE,122,0.0,0.0,96,0.00,,,0.29,0,weatherlink.com 1.10,2013-09-25 05:20:00,
2013-09-24 22:25:00,50.2,49.1,29.85,N/A,-737280,0.0,-999.0,96,0.00,,,0.29,0,Wunderground v.1.15,2013-09-25 05:25:00,
2013-09-24 22:30:00,50.2,49.1,29.85,N/A,-737280,0.0,-999.0,96,0.00,,,0.29,0,Wunderground v.1.15,2013-09-25 05:30:00,
2013-09-24 22:35:00,50.2,49.0,29.85,ESE,122,0.0,0.0,96,0.00,,,0.29,0,weatherlink.com 1.10,2013-09-25 05:35:00,
2013-09-24 22:40:00,50.2,48.8,29.85,N/A,-737280,0.0,-999.0,95,0.00,,,0.29,0,Wunderground v.1.15,2013-09-25 05:40:00,
2013-09-24 22:45:00,50.2,48.8,29.85,N/A,-737280,0.0,-999.0,95,0.00,,,0.29,0,Wunderground v.1.15,2013-09-25 05:45:00,
2013-09-24 22:50:00,50.2,48.8,29.85,N/A,-737280,0.0,-999.0,95,0.00,,,0.29,0,Wunderground v.1.15,2013-09-25 05:50:00,
2013-09-24 22:51:00,50.1,49.0,29.85,ESE,122,0.0,0.0,95,0.00,,,0.29,0,weatherlink.com 1.10,2013-09-25 05:51:00,
2013-09-24 22:55:00,50.1,49.0,29.85,N/A,-737280,0.0,-999.0,96,0.00,,,0.29,0,Wunderground v.1.15,2013-09-25 05:55:00,
2013-09-24 23:00:00,50.1,49.0,29.85,N/A,-737280,0.0,-999.0,96,0.00,,,0.29,0,Wunderground v.1.15,2013-09-25 06:00:00,
2013-09-24 23:05:00,50.1,49.0,29.85,N/A,-737280,0.0,-999.0,96,0.00,,,0.29,0,Wunderground v.1.15,2013-09-25 06:05:00,
2013-09-24 23:06:00,50.1,49.0,29.85,ESE,122,0.0,0.0,96,0.00,,,0.29,0,weatherlink.com 1.10,2013-09-25 06:06:00,
2013-09-24 23:10:00,50.1,49.0,29.85,ESE,113,0.0,-999.0,96,0.00,,,0.29,0,Wunderground v.1.15,2013-09-25 06:10:00,
2013-09-24 23:15:00,50.1,49.0,29.85,ESE,113,0.0,-999.0,96,0.00,,,0.29,0,Wunderground v.1.15,2013-09-25 06:15:00,
2013-09-24 23:20:00,50.1,49.0,29.85,ESE,113,0.0,-999.0,96,0.00,,,0.29,0,Wunderground v.1.15,2013-09-25 06:20:00,
2013-09-24 23:21:00,50.1,49.0,29.85,ESE,122,0.0,1.0,96,0.00,,,0.29,0,weatherlink.com 1.10,2013-09-25 06:21:00,
2013-09-24 23:25:00,50.1,49.0,29.85,N/A,-737280,0.0,-999.0,96,0.00,,,0.29,0,Wunderground v.1.15,2013-09-25 06:25:00,
2013-09-24 23:30:00,50.1,49.0,29.85,N/A,-737280,0.0,-999.0,96,0.00,,,0.29,0,Wunderground v.1.15,2013-09-25 06:30:00,
2013-09-24 23:35:00,50.1,49.0,29.85,N/A,-737280,0.0,-999.0,96,0.00,,,0.29,0,Wunderground v.1.15,2013-09-25 06:35:00,
2013-09-24 23:36:00,50.1,49.0,29.85,ESE,122,0.0,0.0,96,0.00,,,0.29,0,weatherlink.com 1.10,2013-09-25 06:36:00,
2013-09-24 23:40:00,50.1,49.0,29.85,N/A,-737280,0.0,-999.0,96,0.00,,,0.29,0,Wunderground v.1.15,2013-09-25 06:40:00,
2013-09-24 23:45:00,50.1,49.0,29.85,N/A,-737280,0.0,-999.0,96,0.00,,,0.29,0,Wunderground v.1.15,2013-09-25 06:45:00,
2013-09-24 23:50:00,50.1,49.0,29.85,N/A,-737280,0.0,-999.0,96,0.00,,,0.29,0,Wunderground v.1.15,2013-09-25 06:50:00,
2013-09-24 23:51:00,50.1,49.0,29.85,ESE,122,0.0,0.0,96,0.00,,,0.29,0,weatherlink.com 1.10,2013-09-25 06:51:00,
2013-09-24 23:55:00,50.1,49.0,29.85,N/A,-737280,0.0,-999.0,96,0.00,,,0.29,0,Wunderground v.1.15,2013-09-25 06:55:00,